ONEWEB-0020, 45133

Orbit data source: Space-Track

ONEWEB-0020, 45133 is a payload satellite owned by One Web (UK) in LEO that was launched on Thu, 06 Feb 2020 UTC via a SOYUZ-2-1B launch vehicle from the Tyuratam Missile And Space Complex (TTMTR). Payload-class satellites include a variety of spacecraft equipped with specific instruments for various scientific and technological missions. These include communications satellites like Starlink; space stations such as the ISS; scientific satellites like the Hubble; Earth observation satellites from companies like Planet Labs, Umbra, and HawkEye 360; GPS; miniature CubeSats for education and research; and military/defense satellites.

Loading next visibility...
Identifier
45133, 2020-008C
Orbit
LEO
Country
Flag of UKUK
Related business
Manufacturer
One Web
Mission
Operational Commercial Communications
Bus & Motor
ARROW, Unknown motor
Mass
148 kg wet, ~140 kg dry
Launch date (UTC)
2020-02-06 (6 years ago)
Launch vehicle
SOYUZ-2-1B
Launch site
Tyuratam Missile And Space Complex (TTMTR)
Object type
Payload
Rocket body
Debris
Shape & HBR
Trap Box + 2 Pan, 6.7 m
Radar Cross Section
3.464 m², Large (>1 m²)

Expand to show TLE details & history
Last TLE update: 7 hours ago

TLE from 7 hours ago
0 ONEWEB-0020
1 45133U 20008C   26035.03150460 -.00009283  00000-0 -26684-1 0  9992
2 45133  87.8754  62.7998 0001959 105.9147 254.2196 13.10301492290902
Epoch: 2026-02-04T00:45Z
TLE epoch observation values (Epoch: 2026-02-04T00:45:21.997Z)
Latitude
-0.00005°
Longitude
-82.74578°
Altitude
1,225.286 km
Speed
7.242 km/s
True Right ascension
04h 11m 11s
True Declination
0° 00' 00"
Sunlit
Object was in daylight at epoch
Visualization orbit readout
Latitude
Unknown
Longitude
Unknown
Altitude
Unknown
Speed
Unknown
Apparent Right ascension
Unknown
Apparent Declination
Unknown
Sunlit
N/A
Visualization observer readout
Local Sidereal Time
10:06:32
Azimuth
Unknown
Elevation
Unknown
Doppler factor
Unknown
Orbital elements
Apogee altitude
1,220.601 km
Perigee altitude
1,217.625 km
Semi-major axis
7,597.25 km
Eccentricity
0.0002
Inclination
87.8754°
RAAN
62.7998°
Arg. of periapsis
105.9147°
True anomaly
254.198°
Mean anomaly
254.2196°
Eccentric anomaly
254.2088°
Mean motion
3.27762 °/min
Orbital period
109.84 mins
BSTAR
-0.026684
Loading maneuver chart data...
Computing Atmospheric mass density...
Loading historical data...
Loading historical data...
Loading historical data...
Loading historical data...
Loading historical data...
Loading historical data...
Loading historical data...

Documentation

Showing up to 5 results
|